Погода в Понта ду Сол

Португалия     32°40′47″N   17°06′18″W
темп.,
°C
ветер,
м/с
пор.,
м/с
влажн.,
%
обл.,
%
осадки,
мм/ч
давл.,
гПа
погр.,
м
11 мая, вт
вт1101:00+9ссв229223 0.0 1026147
04:00+8с22926 0.0 102674
07:00+7с11867 0.0 102553
10:00+14с116625 0.0 1025580
13:00+17с015628 0.0 1025912
16:00+16св116568 0.0 1025780
19:00+15с117048 0.0 1025586
22:00+10ссз118829 0.0 102760
12 мая, ср
ср1201:00+10ссз11710 0.0 102743
04:00+9с1175100 0.0 102639
07:00+10ссв1171100 0.0 102526
10:00+16с1257100 0.0 1026458
13:00+20с1252100 0.0 1026777
16:00+20с0156100 0.0 1025808
19:00+17ссв1270100 0.0 1025580
22:00+12с129413 0.0 102677
13 мая, чт
чт1301:00+12с229223 0.0 102651
04:00+13ссв239695 0.2 1024214
07:00+12ссв239247 0.3 1024230
10:00+15ссв23611 0.0 1024507
13:00+18с225314 0.0 1024814
16:00+18с22558 0.0 1023803
19:00+16ссв23575 0.0 1023434
22:00+11ссв238613 0.0 102586
14 мая, пт
пт1401:00+11ссв23760 0.0 102563
04:00+11ссв23860 0.0 102478
07:00+11с23750 0.0 102453
10:00+18с24480 0.0 1024531
13:00+21ссв23430 0.0 1024824
16:00+20с23460 0.0 1023815
19:00+17с23540 0.0 1023452
22:00+11ссв23813 0.0 102481
15 мая, сб
сб1501:00+11ссв23740 0.0 102473
04:00+11с23751 0.0 102362
07:00+10ссв23745 0.0 102252
10:00+18ссв23530 0.0 1022444
13:00+21св23510 0.0 1022751
16:00+21св23510 0.0 1021750
19:00+18ссв23570 0.0 1022492
22:00+12ссв238312 0.0 102374